TimeMDT,TemperatureF,Dew PointF,Humidity,Sea Level PressureIn,VisibilityMPH,Wind Direction,Wind SpeedMPH,Gust SpeedMPH,PrecipitationIn,Events,Conditions,WindDirDegrees,DateUTC
12:15 AM,51.8,41.0,67,30.25,10.0,ENE,3.5,-,N/A,,Clear,60,2013-08-31 06:15:00
12:35 AM,48.2,39.2,71,30.25,10.0,Calm,Calm,-,N/A,,Clear,0,2013-08-31 06:35:00
1:15 AM,46.4,39.2,76,30.25,10.0,North,3.5,-,N/A,,Clear,10,2013-08-31 07:15:00
1:35 AM,46.4,41.0,81,30.26,10.0,NNE,4.6,-,N/A,,Clear,20,2013-08-31 07:35:00
1:55 AM,48.2,42.8,82,30.26,10.0,NNW,8.1,-,N/A,,Clear,340,2013-08-31 07:55:00
2:15 AM,46.4,41.0,81,30.26,10.0,North,5.8,-,N/A,,Clear,10,2013-08-31 08:15:00
2:55 AM,46.4,41.0,81,30.26,10.0,North,8.1,-,N/A,,Partly Cloudy,10,2013-08-31 08:55:00
3:15 AM,44.6,39.2,81,30.26,10.0,NNE,4.6,-,N/A,,Mostly Cloudy,20,2013-08-31 09:15:00
3:35 AM,44.6,39.2,81,30.26,10.0,North,5.8,-,N/A,,Overcast,360,2013-08-31 09:35:00
3:55 AM,44.6,39.2,81,30.26,10.0,North,10.4,-,N/A,,Overcast,360,2013-08-31 09:55:00
4:15 AM,44.6,39.2,81,30.26,10.0,North,10.4,-,N/A,,Overcast,360,2013-08-31 10:15:00
4:35 AM,44.6,39.2,81,30.26,10.0,NNE,3.5,-,N/A,,Overcast,30,2013-08-31 10:35:00
4:55 AM,42.8,39.2,87,30.26,10.0,NE,3.5,-,N/A,,Overcast,40,2013-08-31 10:55:00
5:15 AM,42.8,39.2,87,30.27,10.0,NNE,4.6,-,N/A,,Mostly Cloudy,20,2013-08-31 11:15:00
5:35 AM,42.8,39.2,87,30.27,10.0,NNE,3.5,-,N/A,,Partly Cloudy,20,2013-08-31 11:35:00
5:55 AM,39.2,37.4,93,30.28,10.0,NNW,8.1,-,N/A,,Clear,340,2013-08-31 11:55:00
6:15 AM,41.0,37.4,87,30.28,10.0,North,8.1,-,N/A,,Clear,10,2013-08-31 12:15:00
6:35 AM,41.0,37.4,87,30.28,10.0,NNE,4.6,-,N/A,,Clear,30,2013-08-31 12:35:00
6:51 AM,39.2,37.4,93,30.29,10.0,NNE,6.9,-,N/A,,Haze,20,2013-08-31 12:51:00
7:54 AM,42.8,39.2,87,30.30,10.0,North,5.8,-,N/A,,Haze,10,2013-08-31 13:54:00
8:51 AM,51.8,41.0,67,30.31,10.0,North,4.6,-,N/A,,Haze,350,2013-08-31 14:51:00
9:52 AM,59.0,41.0,51,30.31,8.0,Calm,Calm,-,N/A,,Smoke,0,2013-08-31 15:52:00
10:51 AM,64.4,37.4,37,30.30,8.0,Calm,Calm,-,N/A,,Smoke,0,2013-08-31 16:51:00
11:51 AM,69.8,37.4,31,30.29,10.0,SSE,3.5,-,N/A,,Smoke,150,2013-08-31 17:51:00
12:51 PM,77.0,28.4,17,30.26,10.0,South,6.9,-,N/A,,Smoke,190,2013-08-31 18:51:00
1:51 PM,78.8,24.8,14,30.25,10.0,ESE,5.8,-,N/A,,Smoke,110,2013-08-31 19:51:00
2:51 PM,80.6,23.0,12,30.24,10.0,WSW,11.5,17.3,N/A,,Clear,250,2013-08-31 20:51:00
3:51 PM,80.6,24.8,13,30.22,10.0,South,9.2,-,N/A,,Smoke,190,2013-08-31 21:51:00
4:51 PM,82.4,24.8,12,30.20,10.0,SW,8.1,-,N/A,,Clear,230,2013-08-31 22:51:00
5:51 PM,82.4,24.8,12,30.19,10.0,West,8.1,-,N/A,,Clear,270,2013-08-31 23:51:00
6:51 PM,80.6,28.4,15,30.19,10.0,West,5.8,-,N/A,,Clear,280,2013-09-01 00:51:00
7:51 PM,71.6,30.2,22,30.20,10.0,Calm,Calm,-,N/A,,Clear,0,2013-09-01 01:51:00
8:51 PM,62.6,28.4,27,30.22,10.0,NE,3.5,-,N/A,,Clear,50,2013-09-01 02:51:00
9:15 PM,57.2,30.2,36,30.23,10.0,Calm,Calm,-,N/A,,Clear,0,2013-09-01 03:15:00
9:35 PM,55.4,32.0,41,30.23,10.0,North,4.6,-,N/A,,Clear,360,2013-09-01 03:35:00
9:55 PM,51.8,35.6,54,30.23,10.0,North,9.2,-,N/A,,Clear,10,2013-09-01 03:55:00
10:15 PM,51.8,33.8,50,30.23,10.0,North,6.9,-,N/A,,Clear,10,2013-09-01 04:15:00
10:35 PM,55.4,32.0,41,30.24,10.0,North,5.8,-,N/A,,Clear,360,2013-09-01 04:35:00
11:35 PM,51.8,30.2,44,30.25,10.0,NNE,4.6,-,N/A,,Clear,30,2013-09-01 05:35:00
11:55 PM,48.2,33.8,58,30.25,10.0,NNW,5.8,-,N/A,,Clear,340,2013-09-01 05:55:00